Weather History for Ramona, CA

Change the Weather History Date:

Friday, December 6, 2013

  Actual Average Record
Temperature  
Mean Temperature 42 °F 50 °F  
Max Temperature 55 °F 65 °F 87 °F (1979)
Min Temperature 28 °F 35 °F 24 °F (1978)
Degree Days  
Heating Degree Days 23 15  
Month to date heating degree days 96 87  
Since 1 July heating degree days 525 498  
Cooling Degree Days 0 0  
Month to date cooling degree days 0 0  
Year to date cooling degree days 898 850  
Moisture  
Dew Point 32 °F    
Average Humidity 68    
Maximum Humidity 92    
Minimum Humidity 44    
Precipitation  
Precipitation 0.00 in 0.06 in 0.59 in (1997)
Month to date precipitation 0.07 0.32  
Year to date precipitation 6.49 14.13  
Since 1 July precipitation 1.99 2.80  
Snow  
Snow 0.00 in - - ()
Month to date snowfall 0.0  
Year to date snowfall 0.0  
Since 1 July snowfall 0.0  
Snow Depth 0.00 in    
Sea Level Pressure  
Sea Level Pressure 30.13 in    
Wind  
Wind Speed 3 mph (South)    
Max Wind Speed 14 mph    
Max Gust Speed 17 mph    
Visibility 9 miles    
Events      
T = Trace of Precipitation, MM = Missing Value Source: NWS Daily Summary

Daily Weather History Graph

Daily Weather History Graph

Search for Another Location

Airport:

Trip Planner

Search our weather history database for the weather conditions in past years. The results will help you decide how hot, cold, wet, or windy it might be!

Date:

Astronomy

Dec. 06, 2013 Rise Set
Actual Time 6:37 AM PST 4:40 PM PST
Civil Twilight 6:09 AM PST 5:07 PM PST
Nautical Twilight 5:39 AM PST 5:38 PM PST
Astronomical Twilight 5:09 AM PST 6:08 PM PST
Moon 9:53 AM PST (12/6) 9:09 PM PST (12/6)
Length of Visible Light 10h 57m
Length of Day
10h 03m
Waxing Crescent, 20% of the Moon is Illuminated
Dec 6
Waxing Crescent
Dec 9
First Quarter
Dec 17
Full
Dec 25
Last Quarter
Jan 1
New

Hourly Weather History & Observations

Time (PST) Temp. Windchill Dew Point Humidity Pressure Visibility Wind Dir Wind Speed Gust Speed Precip Events Conditions
12:53 AM 30.9 °F - 28.0 °F 89% 30.11 in 7.0 mi Calm Calm - N/A   Clear
1:53 AM 30.0 °F - 28.0 °F 92% 30.12 in 6.0 mi Calm Calm - N/A   Clear
2:53 AM 28.0 °F 24.2 °F 26.1 °F 92% 30.11 in 6.0 mi SE 3.5 mph - N/A   Clear
3:53 AM 30.0 °F - 27.0 °F 88% 30.11 in 7.0 mi Calm Calm - N/A   Mostly Cloudy
4:53 AM 30.9 °F 26.2 °F 28.0 °F 89% 30.12 in 7.0 mi East 4.6 mph - N/A   Mostly Cloudy
5:53 AM 34.0 °F 31.0 °F 30.9 °F 89% 30.13 in 10.0 mi ESE 3.5 mph - N/A   Overcast
6:53 AM 34.0 °F - 30.9 °F 89% 30.14 in 10.0 mi Calm Calm - N/A   Mostly Cloudy
7:24 AM 37.4 °F - 33.8 °F 87% 30.14 in 10.0 mi Calm Calm - N/A   Overcast
7:53 AM 42.1 °F - 36.0 °F 79% 30.16 in 10.0 mi Calm Calm - N/A   Overcast
8:53 AM 46.9 °F - 37.0 °F 68% 30.18 in 10.0 mi Calm Calm - N/A   Mostly Cloudy
9:12 AM 46.4 °F 45.2 °F 37.4 °F 71% 30.17 in 10.0 mi SSE 3.5 mph - N/A   Overcast
9:53 AM 48.0 °F - 35.1 °F 61% 30.18 in 10.0 mi SSE 4.6 mph - N/A   Mostly Cloudy
10:53 AM 50.0 °F - 34.0 °F 54% 30.17 in 10.0 mi SSW 5.8 mph - N/A   Overcast
11:53 AM 52.0 °F - 32.0 °F 47% 30.14 in 10.0 mi South 9.2 mph - N/A   Overcast
12:53 PM 52.0 °F - 30.9 °F 45% 30.12 in 10.0 mi SW 3.5 mph - N/A   Mostly Cloudy
1:53 PM 52.0 °F - 33.1 °F 49% 30.10 in 10.0 mi SW 6.9 mph - N/A   Overcast
2:53 PM 52.0 °F - 33.1 °F 49% 30.10 in 10.0 mi WSW 9.2 mph - N/A   Overcast
3:53 PM 48.9 °F - 33.1 °F 54% 30.11 in 10.0 mi WSW 9.2 mph - N/A   Clear
4:53 PM 45.0 °F 42.6 °F 32.0 °F 60% 30.12 in 10.0 mi SSW 4.6 mph - N/A   Clear
5:53 PM 42.1 °F - 32.0 °F 67% 30.13 in 10.0 mi Calm Calm - N/A   Clear
6:53 PM 37.9 °F - 30.9 °F 76% 30.14 in 10.0 mi Calm Calm - N/A   Clear
7:53 PM 36.0 °F - 30.9 °F 82% 30.14 in 10.0 mi Calm Calm - N/A   Mostly Cloudy
8:53 PM 34.0 °F - 30.0 °F 85% 30.14 in 10.0 mi Calm Calm - N/A   Partly Cloudy
9:53 PM 35.1 °F - 30.9 °F 85% 30.13 in 9.0 mi Calm Calm - N/A   Mostly Cloudy
10:53 PM 37.0 °F 34.5 °F 32.0 °F 82% 30.12 in 6.0 mi East 3.5 mph - N/A   Haze
11:39 PM 41.0 °F - 33.8 °F 76% 30.12 in 9.0 mi Calm Calm - N/A   Overcast
11:53 PM 39.9 °F - 34.0 °F 79% 30.12 in 10.0 mi Calm Calm - N/A   Mostly Cloudy